Volver al catálogo

KYOKKO 1 DEB

ActivoUNKNOWN
NORAD 12330·DEBRIS·🇯🇵 Japan

Lanzado Feb 4, 1978 desde Uchinoura Space Center

Loading…

Próximos Pases (próximas 24 horas)

TLE

ActualizadoSource: Space-Track

Época: Sep 14, 2026, 13:30 UTC

1 12330U 78014D   26257.56300118  .00000014  00000-0  62404-4 0  9990
2 12330  65.3630  93.4718 1898495 346.6237   9.0343 10.78500967676215

Sigue KYOKKO 1 DEB en tiempo real con AllMySat

Download on the App Store